04-07-2022, 00:00:09,    253,    0.0,   10.4,   0.00,   0.00, 1017.6,   70.3, -999.0
04-07-2022, 00:00:19,    253,    0.0,   10.4,   0.00,   0.00, 1017.7,   70.5, -999.0
04-07-2022, 00:00:29,    253,    0.0,   10.4,   0.00,   0.00, 1017.6,   70.3, -999.0
04-07-2022, 00:00:39,    253,    0.0,   10.4,   0.00,   0.00, 1017.6,   70.3, -999.0
04-07-2022, 00:00:48,    253,    0.0,   10.3,   0.00,   0.00, 1017.6,   70.3, -999.0
04-07-2022, 00:00:59,    254,    0.0,   10.4,   0.00,   0.00, 1017.6,   70.3, -999.0
04-07-2022, 00:01:08,    253,    0.0,   10.4,   0.00,   0.00, 1017.6,   70.3, -999.0
04-07-2022, 00:01:18,    253,    0.0,   10.3,   0.00,   0.00, 1017.6,   70.3, -999.0
04-07-2022, 00:01:28,    253,    0.0,   10.4,   0.00,   0.00, 1017.6,   70.4, -999.0
04-07-2022, 00:01:38,    250,    0.0,   10.4,   0.00,   0.00, 1017.6,   70.5, -999.0
04-07-2022, 00:01:48,    254,    0.0,   10.3,   0.00,   0.00, 1017.7,   70.4, -999.0
04-07-2022, 00:01:58,    254,    0.3,   10.4,   0.00,   0.00, 1017.7,   70.7, -999.0
04-07-2022, 00:02:08,    253,    0.1,   10.4,   0.00,   0.00, 1017.7,   70.5, -999.0
04-07-2022, 00:02:18,    251,    0.0,   10.4,   0.00,   0.00, 1017.7,   70.3, -999.0
04-07-2022, 00:02:28,    253,    0.0,   10.4,   0.00,   0.00, 1017.7,   70.4, -999.0
04-07-2022, 00:02:38,    254,    0.0,   10.3,   0.00,   0.00, 1017.7,   70.5, -999.0
04-07-2022, 00:02:48,    254,    0.0,   10.3,   0.00,   0.00, 1017.6,   70.5, -999.0
04-07-2022, 00:02:58,    256,    0.2,   10.4,   0.00,   0.00, 1017.7,   70.7, -999.0
04-07-2022, 00:03:08,    259,    0.1,   10.4,   0.00,   0.00, 1017.7,   70.7, -999.0
04-07-2022, 00:03:18,    259,    0.0,   10.4,   0.00,   0.00, 1017.7,   70.5, -999.0
04-07-2022, 00:03:28,    259,    0.0,   10.3,   0.00,   0.00, 1017.7,   70.5, -999.0
04-07-2022, 00:03:38,    259,    0.0,   10.4,   0.00,   0.00, 1017.7,   70.6, -999.0
04-07-2022, 00:03:47,    259,    0.1,   10.4,   0.00,   0.00, 1017.7,   70.7, -999.0
04-07-2022, 00:03:57,    259,    0.1,   10.4,   0.00,   0.00, 1017.7,   70.6, -999.0
04-07-2022, 00:04:08,    259,    0.3,   10.5,   0.00,   0.00, 1017.8,   71.0, -999.0
04-07-2022, 00:04:17,    259,    0.0,   10.4,   0.00,   0.00, 1017.7,   70.5, -999.0
04-07-2022, 00:04:27,    259,    0.0,   10.3,   0.00,   0.00, 1017.7,   70.4, -999.0
04-07-2022, 00:04:38,    259,    0.0,   10.3,   0.00,   0.00, 1017.7,   70.5, -999.0
04-07-2022, 00:04:47,    259,    0.0,   10.3,   0.00,   0.00, 1017.7,   70.5, -999.0
04-07-2022, 00:04:57,    259,    0.0,   10.3,   0.00,   0.00, 1017.7,   70.6, -999.0
04-07-2022, 00:05:07,    258,    0.0,   10.3,   0.00,   0.00, 1017.6,   70.6, -999.0
04-07-2022, 00:05:17,    259,    0.0,   10.3,   0.00,   0.00, 1017.7,   70.5, -999.0
04-07-2022, 00:05:27,    257,    0.0,   10.3,   0.00,   0.00, 1017.7,   70.5, -999.0
04-07-2022, 00:05:37,    257,    0.0,   10.3,   0.00,   0.00, 1017.7,   70.7, -999.0
04-07-2022, 00:05:47,    257,    0.1,   10.3,   0.00,   0.00, 1017.7,   70.7, -999.0
04-07-2022, 00:05:57,    257,    0.0,   10.3,   0.00,   0.00, 1017.6,   70.6, -999.0
04-07-2022, 00:06:07,    257,    0.2,   10.4,   0.00,   0.00, 1017.8,   70.9, -999.0
04-07-2022, 00:06:17,    257,    0.0,   10.4,   0.00,   0.00, 1017.7,   70.7, -999.0
04-07-2022, 00:06:27,    256,    0.0,   10.4,   0.00,   0.00, 1017.7,   70.7, -999.0
04-07-2022, 00:06:37,    257,    0.0,   10.4,   0.00,   0.00, 1017.6,   70.7, -999.0
04-07-2022, 00:06:47,    257,    0.0,   10.3,   0.00,   0.00, 1017.6,   70.7, -999.0
04-07-2022, 00:06:56,    256,    0.0,   10.5,   0.00,   0.00, 1017.6,   70.6, -999.0
04-07-2022, 00:07:06,    257,    0.0,   10.4,   0.00,   0.00, 1017.6,   70.6, -999.0
04-07-2022, 00:07:17,    257,    0.1,   10.4,   0.00,   0.00, 1017.7,   70.8, -999.0
04-07-2022, 00:07:26,    256,    0.3,   10.6,   0.00,   0.00, 1017.7,   70.8, -999.0
04-07-2022, 00:07:36,    256,    0.0,   10.4,   0.00,   0.00, 1017.7,   70.5, -999.0
04-07-2022, 00:07:47,    256,    0.0,   10.4,   0.00,   0.00, 1017.6,   70.5, -999.0
04-07-2022, 00:07:56,    255,    0.0,   10.4,   0.00,   0.00, 1017.6,   70.5, -999.0
04-07-2022, 00:08:06,    255,    0.0,   10.4,   0.00,   0.00, 1017.6,   70.5, -999.0
04-07-2022, 00:08:16,    255,    0.0,   10.5,   0.00,   0.00, 1017.6,   70.5, -999.0
04-07-2022, 00:08:26,    256,    0.0,   10.2,   0.00,   0.00, 1017.6,   70.6, -999.0
04-07-2022, 00:08:36,    256,    0.0,   10.3,   0.00,   0.00, 1017.6,   70.5, -999.0
04-07-2022, 00:08:46,    256,    0.0,   10.3,   0.00,   0.00, 1017.6,   70.5, -999.0
04-07-2022, 00:08:56,    257,    0.0,   10.3,   0.00,   0.00, 1017.6,   70.5, -999.0
04-07-2022, 00:09:06,    257,    0.0,   10.3,   0.00,   0.00, 1017.6,   70.6, -999.0
04-07-2022, 00:09:16,    257,    0.0,   10.3,   0.00,   0.00, 1017.6,   70.6, -999.0
04-07-2022, 00:09:26,    257,    0.0,   10.3,   0.00,   0.00, 1017.6,   70.7, -999.0
04-07-2022, 00:09:36,    257,    0.0,   10.4,   0.00,   0.00, 1017.6,   70.6, -999.0
04-07-2022, 00:09:46,    256,    0.0,   10.3,   0.00,   0.00, 1017.6,   70.7, -999.0
04-07-2022, 00:09:56,    257,    0.0,   10.3,   0.00,   0.00, 1017.6,   70.6, -999.0
04-07-2022, 00:10:05,    257,    0.0,   10.3,   0.00,   0.00, 1017.6,   70.7, -999.0
04-07-2022, 00:10:16,    257,    0.0,   10.3,   0.00,   0.00, 1017.6,   70.6, -999.0
04-07-2022, 00:10:26,    256,    0.0,   10.2,   0.00,   0.00, 1017.6,   70.6, -999.0
04-07-2022, 00:10:35,    257,    0.0,   10.2,   0.00,   0.00, 1017.6,   70.7, -999.0
04-07-2022, 00:10:45,    257,    0.0,   10.2,   0.00,   0.00, 1017.6,   70.7, -999.0
04-07-2022, 00:10:56,    257,    0.0,   10.3,   0.00,   0.00, 1017.6,   70.7, -999.0
04-07-2022, 00:11:05,    257,    0.0,   10.2,   0.00,   0.00, 1017.6,   70.7, -999.0
04-07-2022, 00:11:15,    257,    0.0,   10.2,   0.00,   0.00, 1017.6,   70.8, -999.0
04-07-2022, 00:11:25,    256,    0.0,   10.2,   0.00,   0.00, 1017.6,   70.8, -999.0
04-07-2022, 00:11:35,    257,    0.0,   10.1,   0.00,   0.00, 1017.6,   71.0, -999.0
04-07-2022, 00:11:45,    257,    0.0,   10.2,   0.00,   0.00, 1017.6,   70.9, -999.0
04-07-2022, 00:11:55,    257,    0.0,   10.2,   0.00,   0.00, 1017.6,   70.9, -999.0
04-07-2022, 00:12:05,    257,    0.0,   10.1,   0.00,   0.00, 1017.6,   71.0, -999.0
04-07-2022, 00:12:15,    257,    0.0,   10.2,   0.00,   0.00, 1017.6,   71.0, -999.0
04-07-2022, 00:12:25,    256,    0.0,   10.3,   0.00,   0.00, 1017.6,   71.0, -999.0
04-07-2022, 00:12:35,    256,    0.0,   10.2,   0.00,   0.00, 1017.6,   71.0, -999.0
04-07-2022, 00:12:45,    257,    0.0,   10.2,   0.00,   0.00, 1017.6,   71.1, -999.0
04-07-2022, 00:12:55,    256,    0.0,   10.2,   0.00,   0.00, 1017.7,   71.1, -999.0
04-07-2022, 00:13:05,    256,    0.0,   10.2,   0.00,   0.00, 1017.6,   71.2, -999.0
04-07-2022, 00:13:14,    257,    0.0,   10.1,   0.00,   0.00, 1017.6,   71.2, -999.0
04-07-2022, 00:13:25,    257,    0.0,   10.1,   0.00,   0.00, 1017.6,   71.2, -999.0
04-07-2022, 00:13:35,    257,    0.0,   10.1,   0.00,   0.00, 1017.6,   71.1, -999.0
04-07-2022, 00:13:44,    257,    0.0,   10.2,   0.00,   0.00, 1017.6,   71.3, -999.0
04-07-2022, 00:13:54,    257,    0.0,   10.2,   0.00,   0.00, 1017.6,   71.3, -999.0
04-07-2022, 00:14:05,    257,    0.0,   10.2,   0.00,   0.00, 1017.6,   71.3, -999.0
04-07-2022, 00:14:14,    257,    0.0,   10.2,   0.00,   0.00, 1017.7,   71.5, -999.0
04-07-2022, 00:14:24,    257,    0.0,   10.2,   0.00,   0.00, 1017.7,   71.5, -999.0
04-07-2022, 00:14:34,    256,    0.0,   10.2,   0.00,   0.00, 1017.6,   71.3, -999.0
04-07-2022, 00:14:44,    257,    0.0,   10.2,   0.00,   0.00, 1017.6,   71.4, -999.0
04-07-2022, 00:14:54,    256,    0.0,   10.2,   0.00,   0.00, 1017.7,   71.4, -999.0
04-07-2022, 00:15:04,    260,    0.0,   10.2,   0.00,   0.00, 1017.7,   71.4, -999.0
04-07-2022, 00:15:14,    260,    0.0,   10.2,   0.00,   0.00, 1017.7,   71.4, -999.0
04-07-2022, 00:15:24,    261,    0.0,   10.1,   0.00,   0.00, 1017.7,   71.4, -999.0
04-07-2022, 00:15:34,    260,    0.0,   10.1,   0.00,   0.00, 1017.6,   71.5, -999.0
04-07-2022, 00:15:44,    260,    0.0,   10.1,   0.00,   0.00, 1017.7,   71.4, -999.0
04-07-2022, 00:15:54,    261,    0.0,   10.2,   0.00,   0.00, 1017.6,   71.5, -999.0
04-07-2022, 00:16:04,    260,    0.0,   10.2,   0.00,   0.00, 1017.6,   71.4, -999.0
04-07-2022, 00:16:14,    260,    0.0,   10.1,   0.00,   0.00, 1017.6,   71.6, -999.0
04-07-2022, 00:16:23,    260,    0.0,   10.2,   0.00,   0.00, 1017.7,   71.5, -999.0
04-07-2022, 00:16:34,    261,    0.0,   10.1,   0.00,   0.00, 1017.6,   71.5, -999.0
04-07-2022, 00:16:44,    261,    0.0,   10.1,   0.00,   0.00, 1017.6,   71.5, -999.0
04-07-2022, 00:16:53,    260,    0.0,   10.1,   0.00,   0.00, 1017.7,   71.6, -999.0
04-07-2022, 00:17:03,    260,    0.0,   10.1,   0.00,   0.00, 1017.7,   71.5, -999.0
04-07-2022, 00:17:13,    259,    0.0,   10.1,   0.00,   0.00, 1017.7,   71.6, -999.0
04-07-2022, 00:17:23,    260,    0.0,   10.1,   0.00,   0.00, 1017.6,   71.7, -999.0
04-07-2022, 00:17:33,    259,    0.0,   10.1,   0.00,   0.00, 1017.7,   71.6, -999.0
04-07-2022, 00:17:43,    260,    0.0,   10.1,   0.00,   0.00, 1017.7,   71.6, -999.0
04-07-2022, 00:17:53,    259,    0.0,   10.1,   0.00,   0.00, 1017.7,   71.6, -999.0
04-07-2022, 00:18:03,    259,    0.0,   10.1,   0.00,   0.00, 1017.7,   71.6, -999.0
04-07-2022, 00:18:13,    259,    0.0,   10.1,   0.00,   0.00, 1017.6,   71.6, -999.0
04-07-2022, 00:18:23,    259,    0.0,   10.1,   0.00,   0.00, 1017.6,   71.6, -999.0
04-07-2022, 00:18:33,    259,    0.0,   10.1,   0.00,   0.00, 1017.6,   71.7, -999.0
04-07-2022, 00:18:45,    259,    0.0,   10.0,   0.00,   0.00, 1017.6,   71.6, -999.0
04-07-2022, 00:18:53,    261,    0.0,   10.1,   0.00,   0.00, 1017.6,   71.6, -999.0
04-07-2022, 00:19:03,    259,    0.0,   10.0,   0.00,   0.00, 1017.6,   71.6, -999.0
04-07-2022, 00:19:13,    259,    0.0,   10.1,   0.00,   0.00, 1017.6,   71.7, -999.0
04-07-2022, 00:19:23,    259,    0.0,   10.0,   0.00,   0.00, 1017.6,   71.7, -999.0
04-07-2022, 00:19:33,    259,    0.0,   10.1,   0.00,   0.00, 1017.7,   71.9, -999.0
04-07-2022, 00:19:43,    259,    0.0,   10.0,   0.00,   0.00, 1017.6,   71.8, -999.0
04-07-2022, 00:19:52,    259,    0.0,    9.9,   0.00,   0.00, 1017.6,   71.9, -999.0
04-07-2022, 00:20:02,    259,    0.0,   10.1,   0.00,   0.00, 1017.6,   71.8, -999.0
04-07-2022, 00:20:13,    260,    0.0,   10.0,   0.00,   0.00, 1017.6,   71.9, -999.0
04-07-2022, 00:20:22,    259,    0.0,   10.1,   0.00,   0.00, 1017.6,   71.9, -999.0
04-07-2022, 00:20:32,    260,    0.0,   10.1,   0.00,   0.00, 1017.6,   72.0, -999.0
04-07-2022, 00:20:42,    259,    0.0,   10.1,   0.00,   0.00, 1017.6,   72.0, -999.0
04-07-2022, 00:20:52,    259,    0.0,   10.0,   0.00,   0.00, 1017.6,   72.0, -999.0
04-07-2022, 00:21:02,    260,    0.0,    9.9,   0.00,   0.00, 1017.6,   72.0, -999.0
04-07-2022, 00:21:12,    259,    0.0,    9.9,   0.00,   0.00, 1017.6,   71.9, -999.0
04-07-2022, 00:21:22,    259,    0.0,    9.9,   0.00,   0.00, 1017.6,   72.0, -999.0
04-07-2022, 00:21:32,    258,    0.0,    9.9,   0.00,   0.00, 1017.6,   71.9, -999.0
04-07-2022, 00:21:42,    258,    0.0,    9.9,   0.00,   0.00, 1017.6,   72.0, -999.0
04-07-2022, 00:21:52,    257,    0.0,   10.0,   0.00,   0.00, 1017.6,   72.0, -999.0
04-07-2022, 00:22:02,    258,    0.0,    9.8,   0.00,   0.00, 1017.6,   72.0, -999.0
04-07-2022, 00:22:12,    258,    0.0,    9.9,   0.00,   0.00, 1017.6,   72.0, -999.0
04-07-2022, 00:22:22,    258,    0.0,   10.0,   0.00,   0.00, 1017.6,   72.1, -999.0
04-07-2022, 00:22:31,    258,    0.0,   10.0,   0.00,   0.00, 1017.6,   72.2, -999.0
04-07-2022, 00:22:42,    258,    0.0,    9.9,   0.00,   0.00, 1017.6,   72.2, -999.0
04-07-2022, 00:22:52,    258,    0.0,   10.0,   0.00,   0.00, 1017.6,   72.3, -999.0
04-07-2022, 00:23:01,    257,    0.0,    9.9,   0.00,   0.00, 1017.6,   72.3, -999.0
04-07-2022, 00:23:11,    257,    0.0,   10.0,   0.00,   0.00, 1017.6,   72.2, -999.0
04-07-2022, 00:23:22,    257,    0.0,    9.9,   0.00,   0.00, 1017.6,   72.3, -999.0
04-07-2022, 00:23:31,    258,    0.0,    9.9,   0.00,   0.00, 1017.6,   72.3, -999.0
04-07-2022, 00:23:41,    257,    0.0,   10.0,   0.00,   0.00, 1017.6,   72.3, -999.0
04-07-2022, 00:23:52,    257,    0.0,    9.9,   0.00,   0.00, 1017.6,   72.2, -999.0
04-07-2022, 00:24:01,    257,    0.0,    9.8,   0.00,   0.00, 1017.6,   72.3, -999.0
04-07-2022, 00:24:11,    257,    0.0,    9.9,   0.00,   0.00, 1017.6,   72.3, -999.0
04-07-2022, 00:24:21,    258,    0.0,    9.9,   0.00,   0.00, 1017.6,   72.4, -999.0
04-07-2022, 00:24:31,    257,    0.0,    9.9,   0.00,   0.00, 1017.6,   72.4, -999.0
04-07-2022, 00:24:41,    257,    0.0,    9.9,   0.00,   0.00, 1017.6,   72.5, -999.0
04-07-2022, 00:24:51,    257,    0.0,    9.8,   0.00,   0.00, 1017.6,   72.4, -999.0
04-07-2022, 00:25:01,    255,    0.0,   10.0,   0.00,   0.00, 1017.6,   72.5, -999.0
04-07-2022, 00:25:11,    257,    0.0,   10.0,   0.00,   0.00, 1017.6,   72.5, -999.0
04-07-2022, 00:25:21,    257,    0.0,    9.9,   0.00,   0.00, 1017.6,   72.5, -999.0
04-07-2022, 00:25:31,    259,    0.0,    9.9,   0.00,   0.00, 1017.6,   72.6, -999.0
04-07-2022, 00:25:41,    259,    0.0,    9.9,   0.00,   0.00, 1017.6,   72.5, -999.0
04-07-2022, 00:25:51,    259,    0.0,    9.8,   0.00,   0.00, 1017.6,   72.4, -999.0
04-07-2022, 00:26:01,    283,    1.0,    9.9,   0.00,   0.00, 1017.7,   72.7, -999.0
04-07-2022, 00:26:10,    281,    0.8,    9.9,   0.00,   0.00, 1017.7,   72.9, -999.0
04-07-2022, 00:26:21,    281,    1.1,    9.9,   0.00,   0.00, 1017.8,   72.9, -999.0
04-07-2022, 00:26:31,    281,    0.7,    9.9,   0.00,   0.00, 1017.8,   72.8, -999.0
04-07-2022, 00:26:40,    280,    0.0,    9.9,   0.00,   0.00, 1017.6,   72.6, -999.0
04-07-2022, 00:26:50,    281,    0.0,    9.9,   0.00,   0.00, 1017.6,   72.8, -999.0
04-07-2022, 00:27:00,    281,    0.1,    9.9,   0.00,   0.00, 1017.6,   72.9, -999.0
04-07-2022, 00:27:10,    281,    0.0,    9.8,   0.00,   0.00, 1017.6,   72.7, -999.0
04-07-2022, 00:27:20,    280,    0.0,    9.8,   0.00,   0.00, 1017.6,   72.6, -999.0
04-07-2022, 00:27:30,    280,    0.0,    9.9,   0.00,   0.00, 1017.6,   72.7, -999.0
04-07-2022, 00:27:40,    280,    0.0,    9.9,   0.00,   0.00, 1017.6,   72.6, -999.0
04-07-2022, 00:27:50,    280,    0.0,    9.8,   0.00,   0.00, 1017.6,   72.7, -999.0
04-07-2022, 00:28:00,    280,    0.0,    9.9,   0.00,   0.00, 1017.6,   72.7, -999.0
04-07-2022, 00:28:10,    280,    0.0,    9.9,   0.00,   0.00, 1017.6,   72.7, -999.0
04-07-2022, 00:28:20,    280,    0.0,    9.9,   0.00,   0.00, 1017.6,   72.8, -999.0
04-07-2022, 00:28:30,    280,    0.0,    9.8,   0.00,   0.00, 1017.6,   72.9, -999.0
04-07-2022, 00:28:40,    280,    0.0,    9.9,   0.00,   0.00, 1017.6,   72.9, -999.0
04-07-2022, 00:28:50,    280,    0.0,    9.9,   0.00,   0.00, 1017.6,   73.0, -999.0
04-07-2022, 00:29:00,    280,    0.0,    9.9,   0.00,   0.00, 1017.6,   72.9, -999.0
04-07-2022, 00:29:10,    281,    0.0,    9.9,   0.00,   0.00, 1017.6,   73.0, -999.0
04-07-2022, 00:29:19,    281,    0.0,    9.9,   0.00,   0.00, 1017.6,   72.9, -999.0
04-07-2022, 00:29:30,    280,    0.0,    9.9,   0.00,   0.00, 1017.6,   72.9, -999.0
04-07-2022, 00:29:39,    281,    0.0,    9.9,   0.00,   0.00, 1017.6,   72.8, -999.0
04-07-2022, 00:29:49,    280,    0.0,    9.8,   0.00,   0.00, 1017.6,   72.9, -999.0
04-07-2022, 00:29:59,    280,    0.0,    9.8,   0.00,   0.00, 1017.6,   72.8, -999.0
04-07-2022, 00:30:09,    281,    0.0,    9.8,   0.00,   0.00, 1017.6,   72.8, -999.0
04-07-2022, 00:30:19,    281,    0.0,    9.8,   0.00,   0.00, 1017.6,   72.9, -999.0
04-07-2022, 00:30:29,    280,    0.0,    9.7,   0.00,   0.00, 1017.6,   72.8, -999.0
04-07-2022, 00:30:39,    280,    0.0,    9.8,   0.00,   0.00, 1017.6,   72.9, -999.0
04-07-2022, 00:30:49,    281,    0.0,    9.7,   0.00,   0.00, 1017.6,   73.0, -999.0
04-07-2022, 00:30:59,    281,    0.5,    9.8,   0.00,   0.00, 1017.6,   73.2, -999.0
04-07-2022, 00:31:09,    280,    0.5,    9.9,   0.00,   0.00, 1017.7,   73.4, -999.0
04-07-2022, 00:31:19,    281,    0.4,    9.8,   0.00,   0.00, 1017.7,   73.5, -999.0
04-07-2022, 00:31:29,    281,    0.4,    9.9,   0.00,   0.00, 1017.7,   73.4, -999.0
04-07-2022, 00:31:39,    281,    0.1,    9.9,   0.00,   0.00, 1017.6,   73.2, -999.0
04-07-2022, 00:31:49,    264,    0.0,    9.7,   0.00,   0.00, 1017.6,   73.1, -999.0
04-07-2022, 00:31:59,    264,    0.0,    9.8,   0.00,   0.00, 1017.6,   73.2, -999.0
04-07-2022, 00:32:09,    264,    0.0,    9.8,   0.00,   0.00, 1017.6,   73.2, -999.0
04-07-2022, 00:32:19,    264,    0.0,    9.8,   0.00,   0.00, 1017.6,   73.3, -999.0
04-07-2022, 00:32:28,    264,    0.0,    9.8,   0.00,   0.00, 1017.6,   73.2, -999.0
04-07-2022, 00:32:39,    264,    0.0,    9.9,   0.00,   0.00, 1017.6,   73.3, -999.0
04-07-2022, 00:32:48,    264,    0.0,    9.8,   0.00,   0.00, 1017.6,   73.2, -999.0
04-07-2022, 00:32:58,    264,    0.0,    9.8,   0.00,   0.00, 1017.6,   73.3, -999.0
04-07-2022, 00:33:09,    264,    0.0,    9.9,   0.00,   0.00, 1017.6,   73.3, -999.0
04-07-2022, 00:33:18,    264,    0.0,    9.8,   0.00,   0.00, 1017.6,   73.2, -999.0
04-07-2022, 00:33:28,    264,    0.0,    9.8,   0.00,   0.00, 1017.6,   73.1, -999.0
04-07-2022, 00:33:38,    264,    0.0,    9.8,   0.00,   0.00, 1017.6,   73.2, -999.0
04-07-2022, 00:33:48,    264,    0.0,    9.8,   0.00,   0.00, 1017.6,   73.2, -999.0
04-07-2022, 00:33:58,    264,    0.0,    9.8,   0.00,   0.00, 1017.5,   73.1, -999.0
04-07-2022, 00:34:08,    264,    0.0,    9.8,   0.00,   0.00, 1017.6,   73.2, -999.0
04-07-2022, 00:34:18,    264,    0.0,    9.8,   0.00,   0.00, 1017.6,   73.1, -999.0
04-07-2022, 00:34:28,    264,    0.0,    9.9,   0.00,   0.00, 1017.6,   73.3, -999.0
04-07-2022, 00:34:38,    263,    0.0,    9.8,   0.00,   0.00, 1017.6,   73.3, -999.0
04-07-2022, 00:34:48,    263,    0.0,    9.8,   0.00,   0.00, 1017.6,   73.2, -999.0
04-07-2022, 00:34:58,    263,    0.0,    9.8,   0.00,   0.00, 1017.6,   73.2, -999.0
04-07-2022, 00:35:08,    264,    0.0,    9.8,   0.00,   0.00, 1017.6,   73.3, -999.0
04-07-2022, 00:35:18,    264,    0.0,    9.8,   0.00,   0.00, 1017.6,   73.2, -999.0
04-07-2022, 00:35:27,    263,    0.0,    9.9,   0.00,   0.00, 1017.6,   73.2, -999.0
04-07-2022, 00:35:38,    263,    0.0,    9.8,   0.00,   0.00, 1017.6,   73.3, -999.0
04-07-2022, 00:35:48,    264,    0.0,    9.8,   0.00,   0.00, 1017.6,   73.2, -999.0
04-07-2022, 00:35:57,    263,    0.0,    9.8,   0.00,   0.00, 1017.6,   73.3, -999.0
04-07-2022, 00:36:07,    263,    0.0,    9.8,   0.00,   0.00, 1017.6,   73.2, -999.0
04-07-2022, 00:36:18,    263,    0.0,    9.8,   0.00,   0.00, 1017.6,   73.3, -999.0
04-07-2022, 00:36:27,    263,    0.0,    9.8,   0.00,   0.00, 1017.6,   73.3, -999.0
04-07-2022, 00:36:37,    264,    0.0,    9.8,   0.00,   0.00, 1017.6,   73.3, -999.0
04-07-2022, 00:36:47,    264,    0.0,    9.7,   0.00,   0.00, 1017.6,   73.5, -999.0
04-07-2022, 00:36:57,    264,    0.0,    9.7,   0.00,   0.00, 1017.5,   73.5, -999.0
04-07-2022, 00:37:07,    263,    0.0,    9.7,   0.00,   0.00, 1017.5,   73.4, -999.0
04-07-2022, 00:37:17,    263,    0.0,    9.7,   0.00,   0.00, 1017.5,   73.4, -999.0
04-07-2022, 00:37:27,    260,    0.0,    9.7,   0.00,   0.00, 1017.5,   73.3, -999.0
04-07-2022, 00:37:37,    261,    0.0,    9.8,   0.00,   0.00, 1017.6,   73.4, -999.0
04-07-2022, 00:37:47,    260,    0.0,    9.8,   0.00,   0.00, 1017.5,   73.5, -999.0
04-07-2022, 00:37:57,    260,    0.0,    9.8,   0.00,   0.00, 1017.5,   73.5, -999.0
04-07-2022, 00:38:07,    261,    0.0,    9.7,   0.00,   0.00, 1017.5,   73.5, -999.0
04-07-2022, 00:38:17,    261,    0.0,    9.8,   0.00,   0.00, 1017.6,   73.5, -999.0
04-07-2022, 00:38:27,    261,    0.0,    9.8,   0.00,   0.00, 1017.6,   73.5, -999.0
04-07-2022, 00:38:36,    261,    0.0,    9.8,   0.00,   0.00, 1017.5,   73.5, -999.0
04-07-2022, 00:38:47,    261,    0.0,    9.7,   0.00,   0.00, 1017.5,   73.4, -999.0
04-07-2022, 00:38:57,    260,    0.0,    9.7,   0.00,   0.00, 1017.5,   73.5, -999.0
04-07-2022, 00:39:06,    261,    0.0,    9.7,   0.00,   0.00, 1017.5,   73.5, -999.0
04-07-2022, 00:39:16,    261,    0.0,    9.8,   0.00,   0.00, 1017.5,   73.7, -999.0
04-07-2022, 00:39:27,    260,    0.0,    9.8,   0.00,   0.00, 1017.5,   73.6, -999.0
04-07-2022, 00:39:36,    261,    0.0,    9.7,   0.00,   0.00, 1017.5,   73.6, -999.0
04-07-2022, 00:39:46,    261,    0.0,    9.7,   0.00,   0.00, 1017.5,   73.6, -999.0
04-07-2022, 00:39:57,    260,    0.0,    9.7,   0.00,   0.00, 1017.5,   73.6, -999.0
04-07-2022, 00:40:06,    260,    0.0,    9.7,   0.00,   0.00, 1017.6,   73.6, -999.0
04-07-2022, 00:40:16,    260,    0.0,    9.7,   0.00,   0.00, 1017.6,   73.6, -999.0
04-07-2022, 00:40:26,    261,    0.0,    9.7,   0.00,   0.00, 1017.5,   73.6, -999.0
04-07-2022, 00:40:36,    261,    0.0,    9.7,   0.00,   0.00, 1017.5,   73.7, -999.0
04-07-2022, 00:40:46,    260,    0.0,    9.7,   0.00,   0.00, 1017.5,   73.6, -999.0
04-07-2022, 00:40:56,    260,    0.0,    9.7,   0.00,   0.00, 1017.5,   73.6, -999.0
04-07-2022, 00:41:06,    260,    0.0,    9.7,   0.00,   0.00, 1017.6,   73.6, -999.0
04-07-2022, 00:41:16,    261,    0.0,    9.7,   0.00,   0.00, 1017.5,   73.6, -999.0
04-07-2022, 00:41:26,    261,    0.0,    9.7,   0.00,   0.00, 1017.5,   73.7, -999.0
04-07-2022, 00:41:36,    261,    0.0,    9.7,   0.00,   0.00, 1017.5,   73.7, -999.0
04-07-2022, 00:41:45,    260,    0.0,    9.7,   0.00,   0.00, 1017.5,   73.6, -999.0
04-07-2022, 00:41:56,    261,    0.0,    9.8,   0.00,   0.00, 1017.5,   73.7, -999.0
04-07-2022, 00:42:06,    261,    0.0,    9.7,   0.00,   0.00, 1017.5,   73.6, -999.0
04-07-2022, 00:42:15,    261,    0.0,    9.7,   0.00,   0.00, 1017.5,   73.7, -999.0
04-07-2022, 00:42:26,    260,    0.0,    9.7,   0.00,   0.00, 1017.5,   73.7, -999.0
04-07-2022, 00:42:36,    261,    0.0,    9.7,   0.00,   0.00, 1017.5,   73.7, -999.0
04-07-2022, 00:42:45,    261,    0.0,    9.6,   0.00,   0.00, 1017.6,   73.7, -999.0
04-07-2022, 00:42:55,    260,    0.0,    9.7,   0.00,   0.00, 1017.5,   73.7, -999.0
04-07-2022, 00:43:05,    261,    0.0,    9.7,   0.00,   0.00, 1017.5,   73.8, -999.0
04-07-2022, 00:43:15,    260,    0.0,    9.7,   0.00,   0.00, 1017.5,   73.8, -999.0
04-07-2022, 00:43:25,    261,    0.0,    9.7,   0.00,   0.00, 1017.5,   73.7, -999.0
04-07-2022, 00:43:35,    261,    0.0,    9.7,   0.00,   0.00, 1017.5,   73.8, -999.0
04-07-2022, 00:43:45,    260,    0.0,    9.7,   0.00,   0.00, 1017.6,   73.9, -999.0
04-07-2022, 00:43:55,    261,    0.0,    9.7,   0.00,   0.00, 1017.5,   73.9, -999.0
04-07-2022, 00:44:05,    261,    0.0,    9.6,   0.00,   0.00, 1017.5,   73.9, -999.0
04-07-2022, 00:44:15,    260,    0.0,    9.7,   0.00,   0.00, 1017.5,   73.8, -999.0
04-07-2022, 00:44:25,    260,    0.0,    9.7,   0.00,   0.00, 1017.5,   73.9, -999.0
04-07-2022, 00:44:35,    261,    0.0,    9.7,   0.00,   0.00, 1017.5,   73.9, -999.0
04-07-2022, 00:44:45,    260,    0.0,    9.7,   0.00,   0.00, 1017.5,   73.9, -999.0
04-07-2022, 00:44:55,    260,    0.0,    9.7,   0.00,   0.00, 1017.5,   74.0, -999.0
04-07-2022, 00:45:05,    260,    0.0,    9.7,   0.00,   0.00, 1017.6,   74.0, -999.0
04-07-2022, 00:45:15,    260,    0.0,    9.7,   0.00,   0.00, 1017.6,   74.0, -999.0
04-07-2022, 00:45:24,    261,    0.0,    9.7,   0.00,   0.00, 1017.6,   74.1, -999.0
04-07-2022, 00:45:35,    260,    0.0,    9.5,   0.00,   0.00, 1017.5,   74.0, -999.0
04-07-2022, 00:45:44,    261,    0.0,    9.6,   0.00,   0.00, 1017.6,   74.1, -999.0
04-07-2022, 00:45:54,    260,    0.0,    9.7,   0.00,   0.00, 1017.5,   74.1, -999.0
04-07-2022, 00:46:04,    261,    0.0,    9.6,   0.00,   0.00, 1017.5,   74.1, -999.0
04-07-2022, 00:46:14,    260,    0.0,    9.6,   0.00,   0.00, 1017.5,   74.1, -999.0
04-07-2022, 00:46:24,    260,    0.0,    9.6,   0.00,   0.00, 1017.5,   74.0, -999.0
04-07-2022, 00:46:34,    260,    0.0,    9.6,   0.00,   0.00, 1017.5,   74.0, -999.0
04-07-2022, 00:46:44,    260,    0.0,    9.6,   0.00,   0.00, 1017.5,   74.1, -999.0